This is the latest recevied weather packets stored in our database for station/object K7KAR-2. If no packets are shown the sender has not sent any weather packets the latest 10 day(s).
| Time | Temp. | Humidity | Pressure | Rain* | Wind** | Luminosity | Snow |
|---|---|---|---|---|---|---|---|
| 1777592475 | 14.44° C | 10% | 1019.7 hPa | 0 mm | - | 191 W/m² | - |
| 1777592170 | 15° C | 10% | 1019.5 hPa | 0 mm | - | 199 W/m² | - |
| 1777591867 | 15° C | 10% | 1019.7 hPa | 0 mm | - | 231 W/m² | - |
| 1777591563 | 15° C | 10% | 1019.7 hPa | 0 mm | - | 254 W/m² | - |
| 1777591259 | 15° C | 10% | 1019.5 hPa | 0 mm | - | 282 W/m² | - |
| 1777590954 | 15° C | 10% | 1019.5 hPa | 0 mm | - | 312 W/m² | - |
| 1777590650 | 14.44° C | 10% | 1019.8 hPa | 0 mm | - | 318 W/m² | - |
| 1777590346 | 15° C | 10% | 1019.5 hPa | 0 mm | - | 340 W/m² | - |
| 1777590044 | 15° C | 10% | 1019.7 hPa | 0 mm | - | 352 W/m² | - |
| 1777589741 | 14.44° C | 10% | 1019.7 hPa | 0 mm | - | 374 W/m² | - |
| 1777589439 | 15° C | 10% | 1019.8 hPa | 0 mm | - | 398 W/m² | - |
| 1777589135 | 15° C | 10% | 1019.9 hPa | 0 mm | - | 404 W/m² | - |
| 1777588831 | 15° C | 10% | 1019.9 hPa | 0 mm | - | 424 W/m² | - |
| 1777588527 | 15° C | 10% | 1019.8 hPa | 0 mm | - | 444 W/m² | - |
| 1777588223 | 15° C | 10% | 1019.9 hPa | 0 mm | - | 457 W/m² | - |
| 1777587918 | 14.44° C | 10% | 1019.9 hPa | 0 mm | - | 485 W/m² | - |
| 1777587614 | 14.44° C | 10% | 1020 hPa | 0 mm | - | 488 W/m² | - |
| 1777587309 | 14.44° C | 10% | 1020 hPa | 0 mm | - | 509 W/m² | - |
| 1777587004 | 14.44° C | 10% | 1020 hPa | 0 mm | - | 527 W/m² | - |
| 1777586700 | 15° C | 10% | 1019.8 hPa | 0 mm | - | 546 W/m² | - |
| 1777586396 | 14.44° C | 10% | 1019.9 hPa | 0 mm | - | 558 W/m² | - |
| 1777586096 | 14.44° C | 10% | 1020 hPa | 0 mm | - | 572 W/m² | - |
| 1777585794 | 14.44° C | 10% | 1020.1 hPa | 0 mm | - | 598 W/m² | - |
| 1777585489 | 15° C | 10% | 1020.1 hPa | 0 mm | - | 596 W/m² | - |
| 1777585185 | 14.44° C | 10% | 1020.3 hPa | 0 mm | - | 617 W/m² | - |
* Rain latest hour (hover to see other rain measurements)
** Current wind speed in m/s (hover to see current wind gust speed)